timestamp,surface_pressure_avg,surface_temp_avg,battery_voltage,lat,long
2023-05-29 00:09:00+00:00,230.6748,5.8,12.89,47.84626,-54.09684
2023-05-29 00:19:00+00:00,228.8047,5.8,12.73,47.84626,-54.09684
2023-05-29 00:29:00+00:00,236.0681,5.8,12.73,47.84626,-54.09684
2023-05-29 00:39:00+00:00,235.1964,5.8,12.73,47.84626,-54.09684
2023-05-29 00:49:00+00:00,230.4481,5.8,12.73,47.84626,-54.09684
2023-05-29 00:59:00+00:00,232.7798,5.8,12.73,47.84626,-54.09684
2023-05-29 01:09:00+00:00,237.5748,5.8,12.73,47.84626,-54.09684
2023-05-29 01:19:00+00:00,232.2481,5.8,12.73,47.84626,-54.09684
2023-05-29 01:29:00+00:00,228.1014,5.8,12.73,47.84626,-54.09684
2023-05-29 01:39:00+00:00,232.3348,5.8,12.73,47.84626,-54.09684
2023-05-29 01:49:00+00:00,234.3548,5.8,12.73,47.84626,-54.09684
2023-05-29 01:59:00+00:00,232.3498,5.87,12.73,47.84626,-54.09684
2023-05-29 02:09:00+00:00,235.3898,5.88,12.73,47.84626,-54.09684
2023-05-29 02:19:00+00:00,240.7514,5.88,12.65,47.84626,-54.09684
2023-05-29 02:29:00+00:00,241.3698,5.9,12.65,47.84626,-54.09684
2023-05-29 02:39:00+00:00,242.3647,5.94,12.65,47.84626,-54.09684
2023-05-29 02:49:00+00:00,241.7314,5.99,12.65,47.84626,-54.09684
2023-05-29 02:59:00+00:00,247.3464,6.0,12.65,47.84626,-54.09684
2023-05-29 03:09:00+00:00,250.4764,6.0,12.65,47.84626,-54.09684
2023-05-29 03:19:00+00:00,252.9748,6.0,12.65,47.84626,-54.09684
2023-05-29 03:29:00+00:00,252.948,6.02,12.65,47.84626,-54.09684
2023-05-29 03:39:00+00:00,252.0248,6.06,12.65,47.84626,-54.09684
2023-05-29 03:49:00+00:00,255.3631,6.08,12.65,47.84626,-54.09684
2023-05-29 03:59:00+00:00,258.2298,6.09,12.65,47.84626,-54.09684
2023-05-29 04:09:00+00:00,263.7697,6.1,12.65,47.84626,-54.09684
2023-05-29 04:19:00+00:00,270.2814,6.1,12.65,47.84626,-54.09684
2023-05-29 04:29:00+00:00,279.3331,6.1,12.65,47.84626,-54.09684
2023-05-29 04:39:00+00:00,277.3114,6.1,12.65,47.84626,-54.09684
2023-05-29 04:49:00+00:00,280.1714,6.1,12.65,47.84626,-54.09684
2023-05-29 04:59:00+00:00,282.743,6.1,12.65,47.84626,-54.09684
2023-05-29 05:09:00+00:00,285.5964,6.1,12.65,47.84626,-54.09684
2023-05-29 05:19:00+00:00,282.8314,6.1,12.65,47.84626,-54.09684
2023-05-29 05:29:00+00:00,294.1414,6.1,12.65,47.84626,-54.09684
2023-05-29 05:39:00+00:00,292.1597,6.1,12.65,47.84626,-54.09684
2023-05-29 05:49:00+00:00,288.193,6.1,12.65,47.84626,-54.09684
2023-05-29 05:59:00+00:00,292.183,6.1,12.65,47.84626,-54.09684
2023-05-29 06:09:00+00:00,300.3146,6.1,12.65,47.84626,-54.09684
2023-05-29 06:19:00+00:00,305.618,6.1,12.57,47.84626,-54.09684
2023-05-29 06:29:00+00:00,307.7496,6.12,12.57,47.84626,-54.09684
2023-05-29 06:39:00+00:00,306.863,6.12,12.57,47.84626,-54.09684
2023-05-29 06:49:00+00:00,301.0114,6.14,12.57,47.84626,-54.09684
2023-05-29 06:59:00+00:00,307.1464,6.15,12.57,47.84626,-54.09684
2023-05-29 07:09:00+00:00,302.2796,6.17,12.57,47.84626,-54.09684
2023-05-29 07:19:00+00:00,308.1429,6.18,12.57,47.84626,-54.09684
2023-05-29 07:29:00+00:00,314.4563,6.18,12.57,47.84626,-54.09684
2023-05-29 07:39:00+00:00,309.9514,6.18,12.57,47.84626,-54.09684
2023-05-29 07:49:00+00:00,300.6097,6.19,12.57,47.84626,-54.09684
2023-05-29 07:59:00+00:00,303.6213,6.2,12.57,47.84626,-54.09684
2023-05-29 08:09:00+00:00,304.4464,6.19,12.57,47.84626,-54.09684
2023-05-29 08:19:00+00:00,307.553,6.19,12.57,47.84626,-54.09684
2023-05-29 08:29:00+00:00,297.888,6.19,12.57,47.84626,-54.09684
2023-05-29 08:39:00+00:00,300.798,6.19,12.57,47.84626,-54.09684
2023-05-29 08:49:00+00:00,298.8914,6.18,12.57,47.84626,-54.09684
2023-05-29 08:59:00+00:00,303.7463,6.12,12.57,47.84626,-54.09684
2023-05-29 09:09:00+00:00,285.3813,6.13,12.57,47.84626,-54.09684
2023-05-29 09:19:00+00:00,274.9931,6.17,12.57,47.84626,-54.09684
2023-05-29 09:29:00+00:00,285.8947,6.12,12.57,47.84626,-54.09684
2023-05-29 09:39:00+00:00,281.7347,6.16,12.57,47.84626,-54.09684
2023-05-29 09:49:00+00:00,261.4481,6.19,12.57,47.84626,-54.09684
2023-05-29 09:59:00+00:00,262.403,6.19,12.57,47.84626,-54.09684
2023-05-29 10:09:00+00:00,265.7964,6.18,12.57,47.84626,-54.09684
2023-05-29 10:19:00+00:00,251.7364,6.19,12.73,47.84626,-54.09684
2023-05-29 10:29:00+00:00,244.8298,6.19,12.73,47.84626,-54.09684
2023-05-29 10:39:00+00:00,249.3264,6.19,12.73,47.84626,-54.09684
2023-05-29 10:49:00+00:00,243.5964,6.19,12.73,47.84626,-54.09684
2023-05-29 10:59:00+00:00,232.1614,6.2,12.73,47.84626,-54.09684
2023-05-29 11:09:00+00:00,232.00799999999998,6.2,12.73,47.84626,-54.09684
2023-05-29 11:19:00+00:00,232.9581,6.2,13.68,47.84626,-54.09684
2023-05-29 11:29:00+00:00,225.5431,6.39,13.68,47.84626,-54.09684
2023-05-29 11:39:00+00:00,218.2581,6.6,13.68,47.84626,-54.09684
2023-05-29 11:49:00+00:00,219.2198,6.7,13.68,47.84626,-54.09684
2023-05-29 11:59:00+00:00,214.9748,6.8,13.68,47.84626,-54.09684
2023-05-29 12:09:00+00:00,212.1348,6.8,13.68,47.84626,-54.09684
2023-05-29 12:19:00+00:00,217.7448,6.8,13.76,47.84626,-54.09684
2023-05-29 12:29:00+00:00,221.4214,6.8,13.76,47.84626,-54.09684
2023-05-29 12:39:00+00:00,213.8348,6.8,13.76,47.84626,-54.09684
2023-05-29 12:49:00+00:00,217.3065,6.8,13.76,47.84626,-54.09684
2023-05-29 12:59:00+00:00,226.7297,6.8,13.76,47.84626,-54.09684
2023-05-29 13:09:00+00:00,227.328,6.71,13.76,47.84626,-54.09684
2023-05-29 13:19:00+00:00,223.4031,6.7,13.92,47.84626,-54.09684
2023-05-29 13:29:00+00:00,228.7831,6.7,13.92,47.84626,-54.09684
2023-05-29 13:39:00+00:00,235.5948,6.7,13.92,47.84626,-54.09684
2023-05-29 13:49:00+00:00,232.1365,6.7,13.92,47.84626,-54.09684
2023-05-29 13:59:00+00:00,228.7964,6.7,13.92,47.84626,-54.09684
2023-05-29 14:09:00+00:00,232.9931,6.7,13.92,47.84626,-54.09684
2023-05-29 14:19:00+00:00,233.0131,6.7,14.0,47.84626,-54.09684
2023-05-29 14:29:00+00:00,231.3814,6.77,14.0,47.84626,-54.09684
2023-05-29 14:39:00+00:00,234.3164,6.79,14.0,47.84626,-54.09684
2023-05-29 14:49:00+00:00,234.1331,6.78,14.0,47.84626,-54.09684
2023-05-29 14:59:00+00:00,230.5847,6.8,14.0,47.84626,-54.09684
2023-05-29 15:09:00+00:00,230.6598,6.89,14.0,47.84626,-54.09684
2023-05-29 15:19:00+00:00,235.2448,6.8,13.92,47.84626,-54.09684
2023-05-29 15:29:00+00:00,238.6531,6.8,13.92,47.84626,-54.09684
2023-05-29 15:39:00+00:00,244.5098,6.9,13.92,47.84626,-54.09684
2023-05-29 15:49:00+00:00,248.5881,7.0,13.92,47.84626,-54.09684
2023-05-29 15:59:00+00:00,252.0581,7.03,13.92,47.84626,-54.09684
2023-05-29 16:09:00+00:00,257.3081,6.9,13.92,47.84626,-54.09684
2023-05-29 16:19:00+00:00,265.243,6.82,13.84,47.84626,-54.09684
2023-05-29 16:29:00+00:00,266.9448,6.95,13.84,47.84626,-54.09684
2023-05-29 16:39:00+00:00,272.5047,7.0,13.84,47.84626,-54.09684
2023-05-29 16:49:00+00:00,284.403,6.8,13.84,47.84626,-54.09684
2023-05-29 16:59:00+00:00,291.1664,6.8,13.84,47.84626,-54.09684
2023-05-29 17:09:00+00:00,287.1346,6.9,13.84,47.84626,-54.09684
2023-05-29 17:19:00+00:00,295.9147,7.0,13.92,47.84626,-54.09684
2023-05-29 17:29:00+00:00,305.9313,7.0,13.92,47.84626,-54.09684
2023-05-29 17:39:00+00:00,308.948,7.0,13.92,47.84626,-54.09684
2023-05-29 17:49:00+00:00,306.7563,7.02,13.92,47.84626,-54.09684
2023-05-29 17:59:00+00:00,311.8214,7.0,13.92,47.84626,-54.09684
2023-05-29 18:09:00+00:00,316.5413,7.0,13.92,47.84626,-54.09684
2023-05-29 18:19:00+00:00,314.153,6.94,13.84,47.84626,-54.09684
2023-05-29 18:29:00+00:00,310.3931,6.99,13.84,47.84626,-54.09684
2023-05-29 18:39:00+00:00,320.1912,6.9,13.84,47.84626,-54.09684
2023-05-29 18:49:00+00:00,330.0780000000001,6.58,13.84,47.84626,-54.09684
2023-05-29 18:59:00+00:00,327.4996,6.6,13.84,47.84626,-54.09684
2023-05-29 19:09:00+00:00,326.483,6.5,13.84,47.84626,-54.09684
2023-05-29 19:19:00+00:00,331.463,6.39,13.76,47.84626,-54.09684
2023-05-29 19:29:00+00:00,329.8664,6.46,13.76,47.84626,-54.09684
2023-05-29 19:39:00+00:00,323.3113,6.4,13.76,47.84626,-54.09684
2023-05-29 19:49:00+00:00,321.6897,6.3,13.76,47.84626,-54.09684
2023-05-29 19:59:00+00:00,325.9396,6.2,13.76,47.84626,-54.09684
2023-05-29 20:09:00+00:00,328.2313,6.2,13.76,47.84626,-54.09684
2023-05-29 20:19:00+00:00,320.8446,6.2,13.76,47.84626,-54.09684
2023-05-29 20:29:00+00:00,315.1429,6.1,13.76,47.84626,-54.09684
2023-05-29 20:39:00+00:00,314.4696,6.1,13.76,47.84626,-54.09684
2023-05-29 20:49:00+00:00,310.9313,6.02,13.76,47.84626,-54.09684
2023-05-29 20:59:00+00:00,308.1546,6.52,13.76,47.84626,-54.09684
2023-05-29 21:09:00+00:00,312.9113,6.73,13.76,47.84626,-54.09684
2023-05-29 21:19:00+00:00,308.5697,6.89,13.68,47.84626,-54.09684
2023-05-29 21:29:00+00:00,296.3813,6.99,13.68,47.84626,-54.09684
2023-05-29 21:39:00+00:00,297.093,6.7,13.68,47.84626,-54.09684
2023-05-29 21:49:00+00:00,297.7546,6.5,13.68,47.84626,-54.09684
2023-05-29 21:59:00+00:00,288.558,6.36,13.68,47.84626,-54.09684
2023-05-29 22:09:00+00:00,279.8048,6.2,13.68,47.84626,-54.09684
2023-05-29 22:19:00+00:00,279.973,6.1,13.44,47.84626,-54.09684
2023-05-29 22:29:00+00:00,277.1781,6.0,13.44,47.84626,-54.09684
2023-05-29 22:39:00+00:00,269.3897,6.61,13.44,47.84626,-54.09684
2023-05-29 22:49:00+00:00,260.8581,6.5,13.44,47.84626,-54.09684
2023-05-29 22:59:00+00:00,258.6764,6.2,13.44,47.84626,-54.09684
2023-05-29 23:09:00+00:00,260.1814,6.19,13.44,47.84626,-54.09684
2023-05-29 23:19:00+00:00,254.5314,6.2,13.21,47.84626,-54.09684
2023-05-29 23:29:00+00:00,245.7548,6.2,13.21,47.84626,-54.09684
2023-05-29 23:39:00+00:00,245.9281,6.29,13.21,47.84626,-54.09684
2023-05-29 23:49:00+00:00,251.4065,6.22,13.21,47.84626,-54.09684
2023-05-29 23:59:00+00:00,247.6281,6.2,13.21,47.84626,-54.09684
